Total_Precipitation_Accumulation
0.00 0.00 0.00 0.00 0.00 0.00 0.00 0.00 0.00 0.00 0.00 0.00 0.00 0.00 0.00 0.00 0.00 0.00 0.00 0.00 0.00 0.00 0.00 0.01 0.01 0.02 0.01 0.02 0.02 0.02 0.02 0.03 0.02 0.02 0.02 0.01 0.01 0.02 0.01 0.01 0.01 0.01 0.02
0.00 0.00 0.00 0.01 0.00 0.00 0.00 0.00 0.00 0.00 0.00 0.00 0.00 0.00 0.00 0.00 0.00 0.00 0.00 0.00 0.00 0.00 0.00 0.02 0.03 0.03 0.02 0.03 0.03 0.02 0.01 0.01 0.01 0.01 0.01 0.01 0.01 0.01 0.00 0.00 0.00 0.00 0.00
0.00 0.00 0.00 0.00 0.00 0.00 0.00 0.00 0.00 0.00 0.00 0.00 0.00 0.00 0.00 0.00 0.00 0.00 0.00 0.00 0.00 0.00 0.00 0.01 0.02 0.03 0.03 0.02 0.01 0.01 0.00 0.00 0.00 0.00 0.00 0.00 0.00 0.00 0.00 0.00 0.00 0.00 0.00
0.02 0.01 0.00 0.00 0.00 0.00 0.00 0.00 0.00 0.00 0.00 0.00 0.00 0.00 0.00 0.00 0.00 0.00 0.00 0.00 0.00 0.00 0.00 0.00 0.00 0.01 0.01 0.01 0.00 0.00 0.00 0.00 0.00 0.00 0.00 0.00 0.00 0.00 0.00 0.00 0.00 0.00 0.00
0.06 0.01 0.00 0.00 0.00 0.00 0.00 0.00 0.00 0.00 0.00 0.00 0.00 0.00 0.00 0.00 0.00 0.00 0.00 0.00 0.00 0.00 0.00 0.00 0.00 0.00 0.00 0.00 0.00 0.00 0.00 0.00 0.00 0.00 0.00 0.00 0.00 0.00 0.00 0.00 0.00 0.00 0.00
0.01 0.00 0.00 0.00 0.00 0.00 0.00 0.00 0.00 0.00 0.00 0.00 0.00 0.00 0.00 0.00 0.00 0.00 0.00 0.00 0.00 0.00 0.00 0.00 0.00 0.00 0.00 0.00 0.00 0.00 0.00 0.00 0.00 0.00 0.00 0.00 0.00 0.00 0.00 0.00 0.00 0.00 0.00
0.01 0.01 0.01 0.01 0.00 0.02 0.03 0.01 0.00 0.00 0.00 0.00 0.00 0.00 0.00 0.00 0.00 0.00 0.00 0.00 0.00 0.00 0.00 0.00 0.00 0.00 0.00 0.00 0.00 0.00 0.00 0.00 0.00 0.00 0.00 0.00 0.00 0.00 0.00 0.00 0.00 0.00 0.00
0.07 0.01 0.02 0.05 0.00 0.03 0.03 0.00 0.00 0.00 0.00 0.00 0.00 0.00 0.00 0.00 0.00 0.00 0.00 0.00 0.00 0.00 0.00 0.00 0.00 0.00 0.00 0.00 0.00 0.00 0.00 0.00 0.00 0.00 0.00 0.00 0.01 0.00 0.00 0.00 0.00 0.00 0.00
0.31 0.06 0.01 0.02 0.00 0.04 0.03 0.02 0.00 0.00 0.00 0.00 0.00 0.00 0.00 0.00 0.00 0.00 0.00 0.00 0.00 0.00 0.00 0.00 0.00 0.00 0.00 0.00 0.00 0.00 0.00 0.00 0.00 0.00 0.00 0.00 0.00 0.01 0.00 0.00 0.00 0.00 0.00
1.09 0.49 0.11 0.03 0.02 0.04 0.06 0.03 0.01 0.00 0.00 0.00 0.00 0.00 0.00 0.00 0.00 0.00 0.00 0.00 0.00 0.00 0.00 0.00 0.00 0.00 0.00 0.00 0.00 0.00 0.00 0.00 0.00 0.00 0.00 0.00 0.00 0.00 0.00 0.00 0.01 0.00 0.00
1.61 1.53 0.69 0.26 0.15 0.06 0.05 0.07 0.03 0.01 0.00 0.00 0.00 0.00 0.00 0.00 0.00 0.00 0.00 0.00 0.00 0.00 0.00 0.00 0.00 0.00 0.00 0.00 0.00 0.00 0.00 0.00 0.00 0.00 0.00 0.00 0.00 0.00 0.00 0.00 0.01 0.01 0.00
1.69 1.76 1.57 0.59 0.32 0.08 0.05 0.06 0.10 0.06 0.03 0.00 0.00 0.00 0.00 0.00 0.00 0.00 0.00 0.00 0.00 0.00 0.00 0.00 0.00 0.00 0.00 0.00 0.00 0.00 0.00 0.00 0.00 0.00 0.00 0.00 0.00 0.00 0.00 0.00 0.00 0.00 0.01
2.71 2.14 1.58 1.50 0.78 0.28 0.16 0.14 0.18 0.10 0.06 0.05 0.03 0.02 0.00 0.00 0.00 0.00 0.00 0.00 0.00 0.00 0.00 0.00 0.00 0.00 0.00 0.00 0.00 0.00 0.00 0.00 0.00 0.00 0.00 0.00 0.00 0.00 0.00 0.00 0.00 0.00 0.01
2.21 3.47 3.29 1.66 0.93 0.75 0.38 0.30 0.24 0.16 0.08 0.05 0.03 0.01 0.01 0.00 0.00 0.00 0.00 0.00 0.00 0.00 0.00 0.00 0.00 0.00 0.00 0.00 0.00 0.00 0.00 0.00 0.00 0.00 0.00 0.00 0.00 0.00 0.00 0.00 0.00 0.00 0.00
0.79 2.10 3.84 4.44 2.84 1.26 0.65 0.42 0.28 0.20 0.12 0.05 0.03 0.02 0.00 0.00 0.00 0.00 0.00 0.00 0.00 0.00 0.00 0.00 0.00 0.00 0.00 0.00 0.00 0.00 0.00 0.00 0.00 0.00 0.00 0.00 0.00 0.00 0.00 0.00 0.00 0.00 0.00
1.91 1.14 1.27 2.05 4.05 3.91 1.87 0.80 0.44 0.33 0.22 0.12 0.06 0.02 0.00 0.00 0.00 0.00 0.00 0.00 0.01 0.00 0.00 0.00 0.00 0.00 0.00 0.00 0.00 0.00 0.00 0.00 0.00 0.00 0.00 0.00 0.00 0.00 0.00 0.00 0.00 0.00 0.00
1.96 3.22 2.19 1.11 1.90 3.33 3.12 2.03 0.74 0.38 0.25 0.21 0.13 0.05 0.02 0.01 0.00 0.00 0.00 0.00 0.00 0.00 0.00 0.00 0.00 0.00 0.00 0.00 0.00 0.00 0.00 0.00 0.00 0.00 0.00 0.00 0.00 0.00 0.00 0.00 0.00 0.00 0.00
0.89 2.24 3.41 3.14 2.10 2.29 2.83 3.09 2.16 1.12 0.38 0.24 0.20 0.11 0.04 0.03 0.00 0.00 0.00 0.00 0.00 0.01 0.00 0.00 0.00 0.00 0.00 0.00 0.00 0.00 0.00 0.00 0.00 0.00 0.00 0.00 0.00 0.00 0.00 0.00 0.00 0.00 0.00
0.57 1.15 2.08 2.79 3.75 3.15 2.34 2.41 2.60 2.18 1.33 0.70 0.36 0.16 0.09 0.08 0.01 0.00 0.00 0.00 0.00 0.00 0.01 0.01 0.01 0.01 0.00 0.00 0.00 0.00 0.00 0.00 0.00 0.00 0.00 0.00 0.00 0.00 0.00 0.00 0.00 0.00 0.00
0.49 0.67 1.04 1.32 2.01 2.94 3.12 2.54 2.12 2.11 1.68 1.08 0.96 0.45 0.21 0.14 0.08 0.04 0.02 0.01 0.02 0.00 0.01 0.02 0.01 0.01 0.02 0.01 0.00 0.00 0.00 0.00 0.00 0.00 0.00 0.00 0.00 0.00 0.00 0.00 0.00 0.00 0.00
0.24 0.42 0.57 0.80 0.85 1.21 1.77 2.25 2.17 1.93 1.75 1.23 0.85 0.50 0.27 0.21 0.11 0.11 0.06 0.03 0.02 0.01 0.01 0.00 0.00 0.00 0.00 0.01 0.00 0.00 0.00 0.00 0.01 0.01 0.00 0.00 0.00 0.00 0.00 0.00 0.00 0.00 0.00
0.18 0.33 0.45 0.48 0.83 0.73 0.97 1.04 1.39 1.57 1.85 1.89 1.44 0.89 0.47 0.38 0.18 0.14 0.17 0.23 0.13 0.08 0.05 0.02 0.01 0.01 0.00 0.00 0.02 0.02 0.01 0.01 0.00 0.00 0.02 0.01 0.00 0.00 0.00 0.01 0.01 0.01 0.02
0.18 0.24 0.41 0.42 0.44 0.55 0.52 0.79 0.97 1.17 1.18 1.54 1.91 1.84 1.33 1.00 0.70 0.31 0.29 0.31 0.45 0.56 0.34 0.16 0.11 0.06 0.03 0.03 0.07 0.12 0.13 0.08 0.05 0.04 0.03 0.02 0.01 0.00 0.01 0.01 0.02 0.03 0.02
0.24 0.29 0.34 0.43 0.44 0.48 0.50 0.35 0.43 0.61 0.89 1.03 1.23 1.70 1.94 1.67 1.38 1.13 0.73 0.65 0.64 0.58 0.58 0.58 0.42 0.30 0.29 0.31 0.33 0.29 0.27 0.33 0.29 0.18 0.15 0.14 0.06 0.05 0.03 0.04 0.05 0.06 0.06
0.12 0.21 0.29 0.30 0.33 0.39 0.39 0.50 0.47 0.29 0.36 0.56 0.72 0.84 1.16 1.33 1.17 0.98 0.85 0.78 0.70 0.70 0.76 0.74 0.57 0.50 0.45 0.37 0.36 0.52 0.62 0.49 0.45 0.31 0.20 0.15 0.11 0.08 0.07 0.06 0.04 0.06 0.05
0.05 0.09 0.09 0.18 0.24 0.23 0.26 0.25 0.43 0.67 0.52 0.34 0.33 0.44 0.63 0.61 0.59 0.60 0.74 0.84 0.73 0.67 0.52 0.50 0.68 0.71 0.61 0.49 0.49 0.38 0.34 0.36 0.31 0.19 0.08 0.09 0.08 0.10 0.19 0.14 0.10 0.08 0.08